Waarnemingen

Advertentie
Mijn weer
Semmerzake, België (6428): temperatuur & dauwpunt: 17.04.2018 00:00:00 - 23.04.2018 00:00:00 (CEST)Semmerzake, België (6428): windsnelheid & windstoten: 17.04.2018 00:00:00 - 23.04.2018 00:00:00 (CEST)Semmerzake, België (6428): windrichting: 17.04.2018 00:00:00 - 23.04.2018 00:00:00 (CEST)Semmerzake, België (6428): luchtdruk: 17.04.2018 00:00:00 - 23.04.2018 00:00:00 (CEST)Semmerzake, België (6428): zicht: 17.04.2018 00:00:00 - 23.04.2018 00:00:00 (CEST)
Datum & Tijd tt [°C] td [°C] ff [km/u] ff [kn] fx [km/u] fx [kn] dd ppp [hPa] vv [km]
23.04.2018 00:00:00 15,8 9,6 11 6 22 12 ZW 1012,6 19
22.04.2018 23:00:00 17,2 9,3 11 6 - - ZW 1012,2 19
22.04.2018 22:00:00 18,2 9,7 7 4 25 14 ZW 1011,7 19
22.04.2018 21:00:00 19,2 10,7 11 6 25 14 W 1011,2 20
22.04.2018 20:00:00 21,6 11,2 11 6 - - W 1010,5 20
22.04.2018 19:00:00 23,3 11,9 11 6 32 18 W 1010,2 19
22.04.2018 18:00:00 24,6 13,2 14 8 32 18 W 1009,8 20
22.04.2018 17:00:00 24,6 11,9 18 10 - - W 1009,7 20
22.04.2018 16:00:00 24,5 11,3 22 12 40 21 ZW 1009,7 20
22.04.2018 15:00:00 24,8 13,6 22 12 32 18 ZZW 1010,2 20
22.04.2018 14:00:00 24,6 14,0 18 10 - - ZW 1010,3 19
22.04.2018 13:00:00 23,9 13,7 14 8 25 14 Z 1010,7 20
22.04.2018 12:00:00 22,2 13,3 11 6 18 10 Z 1011,2 11
22.04.2018 11:00:00 20,2 13,5 7 4 - - ZZO 1011,7 7
22.04.2018 10:00:00 17,8 13,3 11 6 18 10 ZO 1012,0 5
22.04.2018 09:00:00 15,6 12,0 7 4 11 6 ZO 1012,3 6
22.04.2018 08:00:00 12,1 10,4 7 4 - - ONO 1012,7 5
22.04.2018 07:00:00 11,1 9,3 4 2 18 10 N 1013,7 6
22.04.2018 06:00:00 11,4 8,9 4 2 7 4 N 1014,1 11
22.04.2018 05:00:00 12,9 9,2 4 2 - - N 1014,2 10
22.04.2018 04:00:00 14,6 9,4 7 4 11 6 O 1014,7 13
22.04.2018 03:00:00 15,0 9,6 4 2 11 6 N 1015,6 12
22.04.2018 02:00:00 16,2 9,8 7 4 - - O 1016,2 15
22.04.2018 01:00:00 15,6 10,4 7 4 14 8 O 1016,3 10
22.04.2018 00:00:00 17,4 10,5 7 4 14 8 O 1017,0 10
21.04.2018 23:00:00 17,7 11,0 4 2 - - N 1017,6 8
21.04.2018 22:00:00 18,7 10,8 4 2 11 6 N 1018,0 9
21.04.2018 21:00:00 20,2 10,6 4 2 7 4 N 1017,7 11
21.04.2018 20:00:00 21,6 10,9 4 2 - - N 1018,2 12
21.04.2018 19:00:00 22,2 11,2 4 2 14 8 N 1018,5 13
21.04.2018 18:00:00 22,7 12,5 7 4 14 8 OZO 1019,1 14
21.04.2018 17:00:00 22,9 11,2 7 4 - - ONO 1019,7 14
21.04.2018 16:00:00 22,8 12,8 7 4 14 8 ONO 1020,2 9
21.04.2018 15:00:00 22,3 13,1 7 4 14 8 ONO 1021,0 14
21.04.2018 14:00:00 21,6 13,2 7 4 - - NO 1021,5 7
21.04.2018 13:00:00 20,3 12,8 7 4 14 8 NO 1022,2 6
21.04.2018 12:00:00 18,6 12,8 7 4 11 6 NO 1022,7 5
21.04.2018 11:00:00 17,1 11,8 4 2 - - N 1023,0 3,5
21.04.2018 10:00:00 14,6 11,2 4 2 11 6 N 1023,1 2,5
21.04.2018 09:00:00 12,3 9,8 4 2 11 6 N 1023,1 1,9
21.04.2018 08:00:00 8,6 8,1 4 2 - - N 1023,2 0,8
21.04.2018 07:00:00 8,0 7,5 4 2 4 2 N 1023,0 0,6
21.04.2018 06:00:00 8,0 7,6 4 2 4 2 N 1022,7 0,6
21.04.2018 05:00:00 8,3 7,4 4 2 - - N 1022,7 0,5
21.04.2018 04:00:00 8,8 7,8 4 2 4 2 N 1022,8 1,1
21.04.2018 03:00:00 9,6 8,1 4 2 4 2 N 1023,1 1,6
21.04.2018 02:00:00 10,1 8,5 4 2 - - N 1023,5 1,7
21.04.2018 01:00:00 11,3 9,2 7 4 11 6 N 1023,5 2,2
21.04.2018 00:00:00 13,0 10,4 4 2 7 4 N 1023,3 2,5
20.04.2018 23:00:00 14,2 11,3 4 2 - - N 1023,2 3,1
20.04.2018 22:00:00 15,4 11,7 7 4 18 10 N 1023,2 4,1
20.04.2018 21:00:00 17,1 12,0 11 6 22 12 N 1023,0 5
20.04.2018 20:00:00 20,6 12,7 11 6 - - N 1022,5 11
20.04.2018 19:00:00 23,2 10,2 11 6 22 12 N 1022,2 20
20.04.2018 18:00:00 24,6 11,1 11 6 22 12 NNW 1022,2 20
20.04.2018 17:00:00 25,1 7,6 11 6 - - NW 1022,6 20
20.04.2018 16:00:00 25,3 11,5 11 6 22 12 NW 1022,7 15
20.04.2018 15:00:00 26,2 11,0 7 4 18 10 W 1023,1 20
20.04.2018 14:00:00 25,5 14,3 7 4 - - N 1023,2 18
20.04.2018 13:00:00 24,3 13,8 7 4 18 10 WNW 1023,6 14
20.04.2018 12:00:00 23,8 14,4 7 4 18 10 WZW 1023,7 14
20.04.2018 11:00:00 22,2 13,8 7 4 - - ZW 1023,5 15
20.04.2018 10:00:00 - - - - - - - - -
20.04.2018 09:00:00 17,2 12,3 4 2 11 6 N 1023,2 12
20.04.2018 08:00:00 15,8 11,3 7 4 - - Z 1023,2 19
20.04.2018 07:00:00 14,6 10,6 4 2 7 4 N 1023,0 16
20.04.2018 06:00:00 15,7 10,9 7 4 11 6 Z 1023,0 18
20.04.2018 05:00:00 16,0 10,9 4 2 - - N 1023,1 20
20.04.2018 04:00:00 17,2 11,3 7 4 11 6 Z 1023,3 19
20.04.2018 03:00:00 18,2 11,2 7 4 7 4 N 1023,6 20
20.04.2018 02:00:00 17,7 11,1 4 2 - - N 1023,8 19
20.04.2018 01:00:00 17,5 11,0 4 2 7 4 N 1024,0 20
20.04.2018 00:00:00 17,1 11,1 4 2 7 4 N 1024,2 13
19.04.2018 23:00:00 18,8 10,8 4 2 - - N 1024,2 20
19.04.2018 22:00:00 20,1 11,1 4 2 7 4 N 1024,2 20
19.04.2018 21:00:00 21,6 11,1 4 2 11 6 N 1023,7 20
19.04.2018 20:00:00 24,1 10,7 7 4 - - ZZW 1023,6 20
19.04.2018 19:00:00 25,5 11,7 11 6 25 14 ZZW 1023,6 20
19.04.2018 18:00:00 25,8 10,6 14 8 25 14 Z 1023,7 20
19.04.2018 17:00:00 26,1 9,3 14 8 - - ZZO 1023,8 20
19.04.2018 16:00:00 25,8 12,3 11 6 22 12 ZO 1024,4 19
19.04.2018 15:00:00 25,5 10,8 11 6 18 10 ZO 1024,9 20
19.04.2018 14:00:00 24,2 9,6 11 6 - - ZO 1025,0 16
19.04.2018 13:00:00 23,6 10,6 11 6 18 10 Z 1025,5 17
19.04.2018 12:00:00 22,1 10,3 11 6 18 10 ZZO 1025,7 19
19.04.2018 11:00:00 20,8 9,4 7 4 - - ZZO 1026,0 20
19.04.2018 10:00:00 18,8 8,3 14 8 25 14 Z 1026,0 20
19.04.2018 09:00:00 17,2 7,6 11 6 18 10 ZZO 1026,0 19
19.04.2018 08:00:00 15,0 7,4 11 6 - - ZO 1025,7 20
19.04.2018 07:00:00 13,8 6,7 7 4 18 10 ZO 1025,7 20
19.04.2018 06:00:00 14,7 6,7 14 8 18 10 ZO 1025,5 20
19.04.2018 05:00:00 15,3 6,6 11 6 - - OZO 1026,0 20
19.04.2018 04:00:00 15,6 6,8 7 4 14 8 OZO 1026,2 20
19.04.2018 03:00:00 15,1 7,3 7 4 14 8 OZO 1026,5 20
19.04.2018 02:00:00 15,8 7,5 7 4 - - OZO 1026,9 19
19.04.2018 01:00:00 17,2 7,0 7 4 14 8 O 1027,2 18
19.04.2018 00:00:00 18,7 6,7 7 4 14 8 O 1027,2 20
18.04.2018 23:00:00 19,0 6,8 7 4 - - O 1027,2 20
18.04.2018 22:00:00 20,5 6,6 7 4 14 8 O 1027,4 20
18.04.2018 21:00:00 20,4 8,0 7 4 14 8 ONO 1027,2 20
18.04.2018 20:00:00 22,2 9,2 7 4 - - N 1027,0 20
18.04.2018 19:00:00 23,7 8,6 4 2 18 10 N 1027,4 16
18.04.2018 18:00:00 23,9 6,9 7 4 18 10 OZO 1027,7 20
18.04.2018 17:00:00 23,8 7,4 11 6 - - OZO 1028,2 19
18.04.2018 16:00:00 23,7 10,2 7 4 18 10 ZO 1028,7 19
18.04.2018 15:00:00 22,7 10,6 11 6 18 10 ZO 1029,7 17
18.04.2018 14:00:00 22,2 10,5 7 4 - - OZO 1030,2 20
18.04.2018 13:00:00 21,4 10,1 11 6 18 10 OZO 1030,7 17
18.04.2018 12:00:00 20,5 11,0 4 2 11 6 N 1031,0 20
18.04.2018 11:00:00 18,8 11,1 4 2 - - N 1031,2 20
18.04.2018 10:00:00 16,4 9,5 4 2 7 4 N 1031,0 19
18.04.2018 09:00:00 14,6 8,5 4 2 7 4 N 1030,7 20
18.04.2018 08:00:00 12,3 7,4 4 2 - - N 1030,2 19
18.04.2018 07:00:00 11,3 6,8 7 4 11 6 ZZO 1029,5 19
18.04.2018 06:00:00 12,2 6,5 7 4 11 6 Z 1029,2 20
18.04.2018 05:00:00 12,3 6,8 7 4 - - Z 1029,0 20
18.04.2018 04:00:00 12,1 6,9 7 4 11 6 Z 1028,7 20
18.04.2018 03:00:00 12,2 6,8 7 4 11 6 Z 1028,5 20
18.04.2018 02:00:00 11,8 7,2 7 4 - - Z 1028,2 20
18.04.2018 01:00:00 13,6 6,9 7 4 11 6 ZZO 1028,0 20
18.04.2018 00:00:00 13,4 7,6 7 4 11 6 ZZO 1027,5 20
17.04.2018 23:00:00 13,8 7,3 7 4 - - ZZO 1027,2 20
17.04.2018 22:00:00 15,4 7,0 7 4 11 6 Z 1027,0 20
17.04.2018 21:00:00 16,3 7,3 4 2 14 8 N 1026,2 20
17.04.2018 20:00:00 18,3 7,7 11 6 - - Z 1025,5 20
17.04.2018 19:00:00 19,6 7,2 11 6 25 14 ZZW 1025,0 20
17.04.2018 18:00:00 19,6 7,0 14 8 25 14 ZW 1025,2 20
17.04.2018 17:00:00 19,7 7,0 18 10 - - ZW 1025,0 20
17.04.2018 16:00:00 19,3 7,4 18 10 36 19 ZZW 1024,7 19
17.04.2018 15:00:00 18,7 8,1 18 10 32 18 Z 1024,7 20
17.04.2018 14:00:00 17,9 7,2 18 10 - - ZZW 1024,5 19
17.04.2018 13:00:00 17,2 7,0 18 10 29 16 ZZW 1024,7 15
17.04.2018 12:00:00 16,6 7,5 18 10 29 16 ZZW 1025,0 20
17.04.2018 11:00:00 15,1 7,9 18 10 - - Z 1024,9 15
17.04.2018 10:00:00 13,2 7,4 14 8 25 14 Z 1024,5 19
17.04.2018 09:00:00 11,3 7,1 7 4 18 10 Z 1024,0 18
17.04.2018 08:00:00 9,0 5,5 7 4 - - ZZO 1023,5 17
17.04.2018 07:00:00 8,1 5,5 7 4 14 8 ZZO 1023,0 13
17.04.2018 06:00:00 8,6 6,3 11 6 22 12 ZZO 1022,3 11
17.04.2018 05:00:00 9,1 6,7 11 6 - - ZO 1022,0 13
17.04.2018 04:00:00 8,7 6,4 11 6 18 10 ZO 1022,2 15
17.04.2018 03:00:00 8,8 6,3 11 6 18 10 ZO 1022,1 15
17.04.2018 02:00:00 8,3 6,1 11 6 - - ZO 1021,8 16
17.04.2018 01:00:00 8,5 6,2 7 4 11 6 OZO 1021,7 16
17.04.2018 00:00:00 9,7 5,1 4 2 7 4 N 1021,3 19

tt = temperatuur
td = dauwpunt
ff = windsnelheid
fx = windstoten
dd = windrichting
ppp = luchtdruk
vv = zicht

Weerstations in de omgeving